Satellite-Ground Cal/Val Region Overpasses Predictions

Prediction of Satellite NPP Overpassing Cal/Val Region: PacNW

Region Location: (Latitude: 10.00, Longitude: 139.50) to (Latitude: 22.70, Longitude: 165.60).

Table of predicted overpasses for the next 14.0 days since TLE Epoch: 5/8/2015
Interval Starting Time Starting Location Ending Time Ending Location
1 05/09/2015 02:31:23 ( 10.03, 163.14) 05/09/2015 02:34:58 ( 22.65, 160.14)
2 05/09/2015 15:03:16 ( 22.70, 160.36) 05/09/2015 15:06:52 ( 10.02, 157.35)
3 05/10/2015 02:15:09 ( 19.85, 165.59) 05/10/2015 02:15:57 ( 22.67, 164.89)
4 05/10/2015 03:53:52 ( 10.05, 142.51) 05/10/2015 03:57:27 ( 22.67, 139.52)
5 05/10/2015 14:44:14 ( 22.68, 165.11) 05/10/2015 14:47:49 ( 10.06, 162.11)
6 05/10/2015 16:25:44 ( 22.68, 139.73) 05/10/2015 16:25:59 ( 21.80, 139.51)
7 05/11/2015 03:34:49 ( 10.01, 147.27) 05/11/2015 03:38:25 ( 22.69, 144.27)
8 05/11/2015 16:06:43 ( 22.66, 144.48) 05/11/2015 16:10:18 ( 10.03, 141.48)
9 05/12/2015 03:15:48 ( 10.03, 152.02) 05/12/2015 03:19:23 ( 22.65, 149.03)
10 05/12/2015 15:47:41 ( 22.69, 149.24) 05/12/2015 15:51:17 ( 10.01, 146.23)
11 05/13/2015 02:56:46 ( 10.05, 156.77) 05/13/2015 03:00:21 ( 22.67, 153.78)
12 05/13/2015 15:28:39 ( 22.67, 153.99) 05/13/2015 15:32:14 ( 10.05, 150.99)
13 05/14/2015 02:37:44 ( 10.02, 161.53) 05/14/2015 02:41:20 ( 22.70, 158.53)
14 05/14/2015 15:09:38 ( 22.65, 158.74) 05/14/2015 15:13:13 ( 10.03, 155.74)
15 05/15/2015 02:19:33 ( 13.03, 165.60) 05/15/2015 02:22:17 ( 22.66, 163.29)
16 05/15/2015 04:00:12 ( 10.04, 140.91) 05/15/2015 04:01:55 ( 16.09, 139.51)
17 05/15/2015 14:50:35 ( 22.69, 163.50) 05/15/2015 14:54:11 ( 10.00, 160.49)
18 05/16/2015 03:41:10 ( 10.01, 145.67) 05/16/2015 03:44:46 ( 22.69, 142.66)
19 05/16/2015 14:34:44 ( 11.51, 165.59) 05/16/2015 14:35:09 ( 10.04, 165.25)
20 05/16/2015 16:13:04 ( 22.66, 142.87) 05/16/2015 16:16:39 ( 10.03, 139.88)
21 05/17/2015 03:22:08 ( 10.03, 150.42) 05/17/2015 03:25:43 ( 22.65, 147.42)
22 05/17/2015 15:54:01 ( 22.69, 147.64) 05/17/2015 15:57:37 ( 10.01, 144.63)
23 05/18/2015 03:03:07 ( 10.06, 155.17) 05/18/2015 03:06:42 ( 22.68, 152.17)
24 05/18/2015 15:35:00 ( 22.67, 152.38) 05/18/2015 15:38:35 ( 10.04, 149.39)
25 05/19/2015 02:44:05 ( 10.02, 159.93) 05/19/2015 02:47:40 ( 22.65, 156.93)
26 05/19/2015 15:15:57 ( 22.70, 157.15) 05/19/2015 15:19:33 ( 10.02, 154.14)
27 05/20/2015 02:25:03 ( 10.05, 164.68) 05/20/2015 02:28:38 ( 22.67, 161.68)
28 05/20/2015 14:56:56 ( 22.67, 161.89) 05/20/2015 15:00:31 ( 10.05, 158.90)
29 05/21/2015 03:47:31 ( 10.02, 144.06) 05/21/2015 03:51:06 ( 22.65, 141.07)
30 05/21/2015 14:39:07 ( 18.36, 165.59) 05/21/2015 14:41:29 ( 10.02, 163.65)
31 05/21/2015 16:19:23 ( 22.70, 141.28) 05/21/2015 16:21:28 ( 15.36, 139.51)
32 05/22/2015 03:28:29 ( 10.05, 148.81) 05/22/2015 03:32:04 ( 22.68, 145.81)


NCC Satellite Cal/Val Overpasses Prediction Service
